[[{"header":{"parameterUnit":"m.s-1","parameterCategory":2,"la1":30.2991,"la2":30.254,"lo1":-89.0895,"lo2":-89.0444,"dy":0.0017,"dx":0.0017,"nx":28,"ny":28,"refTime":"2023-07-18T09:00:00:Z","depth":"0","parameterNumber":2,"parameterNumberName":"U-component_of_CURRENTS"},"data":[0,0,0,0,0,0,0,0,0,0,0,0,0,0,0,0,0,0,0,0,0,0,0,0,0,0,0,0,0,0,0,0,0,0,0,0,0,0,0,0,0,0,0,0,0,0,0,0,0,0,0,0,0,0,0,0,0,0,0.2549,0.2549,0,0.2627,0.2628,0.263,0.2576,0.2573,0.2569,0.2566,0.2726,0.2733,0.2741,0,0,0,0,0,0,0,0,0,0,0,0,0,0.2485,0.2486,0.2549,0.2549,0.2549,0.2626,0.2628,0.263,0.2576,0.2572,0.2568,0.2565,0.2724,0.2733,0.2741,0,0,0,0,0,0,0,0,0,0,0,0,0,0.2541,0.2486,0.2549,0.2525,0.2523,0.2626,0.2628,0.2631,0.2577,0.2572,0.2567,0.2563,0.2721,0.2732,0.2743,0.2908,0,0,0.2776,0.2781,0,0,0,0,0,0,0,0,0.2537,0.2544,0.2528,0.2527,0.2525,0.2579,0.2664,0.2724,0.2578,0.2566,0.2566,0.2561,0.2683,0.2696,0.2733,0.2915,0.2922,0.2777,0.2784,0.2788,0.2791,0,0,0,0,0,0,0,0.2534,0.2541,0.2589,0.2529,0.2526,0.2554,0.2557,0.2676,0.2659,0.2567,0.2561,0.2557,0.2682,0.2723,0.2737,0.2924,0.2777,0.2786,0.2793,0.2797,0.3252,0.3257,0,0,0,0,0,0,0.2505,0.2538,0.2586,0.259,0.2509,0.2558,0.2562,0.2574,0.2656,0.2661,0.2561,0.2554,0.2707,0.2724,0.2742,0.2948,0.2788,0.2798,0.2805,0.3246,0.3253,0.3259,0,0,0,0,0,0,0.2504,0.251,0.2583,0.2557,0.2567,0.2563,0.2578,0.2577,0.2603,0.2649,0.2656,0.2583,0.2703,0.2727,0.2871,0.2953,0.2803,0.2813,0.324,0.3248,0.3256,0.3357,0,0,0,0,0,0,0.2502,0.2509,0.252,0.2556,0.2567,0.2664,0.2582,0.2582,0.2604,0.2596,0.2672,0.2681,0.2701,0.2855,0.2882,0.2965,0.2822,0.3233,0.3243,0.3253,0.3347,0.3368,0.3386,0,0,0,0,0,0.25,0.2546,0.2521,0.2527,0.2579,0.2666,0.2679,0.2663,0.261,0.2662,0.2709,0.2678,0.2938,0.287,0.29,0.2988,0.3228,0.324,0.3252,0.3338,0.3364,0.3385,0,0,0,0,0,0,0.2528,0.2545,0.2518,0.2565,0.2612,0.2653,0.2699,0.268,0.2759,0.2755,0.2768,0.2788,0.2945,0.2971,0.2894,0.3152,0.3073,0.3092,0.3128,0.3153,0.3172,0.3149,0.2831,0,0,0,0,0,0.2537,0.2571,0.2596,0.2637,0.2666,0.2684,0.2713,0.2716,0.2776,0.2801,0.2847,0.2921,0.3033,0.3086,0.3191,0.3348,0.3323,0.3421,0.3441,0.3457,0.3463,0.355,0.3576,0.3299,0.3299,0.3299,0,0,0.2556,0.257,0.2587,0.2645,0.2681,0.2781,0.2694,0.2771,0.2853,0.2819,0.296,0.3008,0.3094,0.3259,0.333,0.328,0.3512,0.3472,0.3485,0.3483,0.3566,0.3592,0.3615,0.3308,0.3306,0.3305,0,0,0.2662,0.2635,0.2724,0.2778,0.284,0.2859,0.288,0.2944,0.2968,0.3115,0.3107,0.3195,0.3367,0.3427,0.3483,0.3685,0.3622,0.372,0.3795,0.3881,0.3902,0.3921,0.3855,0.3868,0.3719,0.3719,0.3719,0,0.2693,0.2782,0.2768,0.2886,0.2923,0.2899,0.3015,0.3078,0.3176,0.3202,0.3178,0.3388,0.3451,0.3619,0.3682,0.3726,0.3713,0.3687,0.39,0.3919,0.3937,0.3865,0.3877,0.3725,0.3725,0.3724,0.3723,0,0.2884,0.2949,0.3015,0.3131,0.3183,0.3279,0.3332,0.3391,0.3391,0.3423,0.3564,0.3644,0.3732,0.3789,0.3807,0.3971,0.3894,0.3915,0.3821,0.397,0.3885,0.3896,0.3734,0.3732,0.373,0.3729,0,0,0.2975,0.3117,0.3141,0.3191,0.3304,0.3357,0.3496,0.3582,0.3619,0.3722,0.3787,0.3973,0.3928,0.3991,0.4008,0.4089,0.4182,0.4059,0.406,0.3954,0.4267,0.3918,0.3894,0.4246,0.4251,0.4255,0.4128,0,0.3129,0.3335,0.337,0.3535,0.3627,0.3624,0.3726,0.3792,0.3825,0.3892,0.3949,0.4035,0.4034,0.4049,0.4147,0.4182,0.423,0.4207,0.4173,0.4169,0.3812,0.3904,0.3694,0.3542,0.4138,0.414,0.4141,0,0.3324,0.3406,0.3591,0.366,0.3696,0.3781,0.3831,0.3926,0.4006,0.4025,0.4095,0.4109,0.4218,0.4205,0.4313,0.4297,0.4298,0.4313,0.4309,0.3958,0.3843,0.3511,0.3538,0.3463,0.4157,0.4156,0.4155,0,0.3372,0.3552,0.3663,0.3711,0.3815,0.3851,0.3885,0.3955,0.3992,0.4083,0.4088,0.421,0.4229,0.432,0.4281,0.4331,0.4346,0.4413,0.4086,0.4055,0.3853,0.3795,0.3772,0.4515,0.4515,0.4515,0.4516,0,0.3512,0.3597,0.3678,0.3739,0.3814,0.3867,0.3931,0.3976,0.4029,0.4055,0.413,0.4152,0.4277,0.4266,0.4289,0.4134,0.4334,0.4084,0.4026,0.3869,0.3818,0.372,0.3705,0.4511,0.4512,0.4513,0.4513,0,0.3575,0.3647,0.3759,0.3837,0.385,0.3896,0.3931,0.3967,0.4,0.4035,0.4051,0.4118,0.4071,0.407,0.4141,0.4056,0.3845,0.3903,0.3603,0.351,0.3116,0.3112,0.2866,0.2815,0.355,0.3541,0.3533,0,0.364,0.371,0.3797,0.3832,0.3866,0.3913,0.3936,0.3965,0.398,0.3988,0.3998,0.3949,0.3885,0.3733,0.3584,0.343,0.3481,0.3131,0.3216,0.303,0.2993,0.2955,0.2936,0.2978,0.2966,0.2957,0.2949,0,0.373,0.3753,0.3824,0.3873,0.3906,0.3925,0.3941,0.3928,0.393,0.3907,0.3825,0.376,0.3533,0.3254,0.2977,0.2898,0.2927,0.2922,0.2908,0.2654,0.2449,0.239,0.3031,0.2865,0.2874,0.288,0.2884,0.2888,0.3777,0.3824,0.3884,0.3906,0.3936,0.3894,0.3825,0.3809,0.3746,0.3566,0.3622,0.335,0.3051,0.2626,0.2494,0.2088,0.2276,0.2044,0.208,0.2077,0.1954,0.2278,0.1935,0.1938,0.1941,0.1943,0.1945,0,0.3827,0.3855,0.3895,0.3892,0.3849,0.3863,0.3786,0.3624,0.3446,0.3292,0.3125,0.2642,0.2291,0.2012,0.1551,0.1349,0.1398,0.1283,0.1334,0.1392,0.1836,0.174,0.1123,0.1123,0.1123,0.1124,0.1124,0.1124,0.3866,0.389,0.3866,0.3774,0.3738,0.3555,0.3447,0.3214,0.3018,0.2543,0.2172,0.2011,0.1729,0.1288,0.0935,0.0878,0.0914,0.0682,0.0845,0.1291,0.1373,0.1451,0.1364,0.0679,0.0678,0.038,0.0377,0.0375]},{"header":{"parameterUnit":"m.s-1","parameterCategory":2,"la1":30.2991,"la2":30.254,"lo1":-89.0895,"lo2":-89.0444,"dy":0.0017,"dx":0.0017,"nx":28,"ny":28,"refTime":"2023-07-18T09:00:00:Z","depth":"0","parameterNumber":3,"parameterNumberName":"V-component_of_CURRENTS"},"data":[0,0,0,0,0,0,0,0,0,0,0,0,0,0,0,0,0,0,0,0,0,0,0,0,0,0,0,0,0,0,0,0,0,0,0,0,0,0,0,0,0,0,0,0,0,0,0,0,0,0,0,0,0,0,0,0,0,0,0.0361,0.0361,0,0.0403,0.0404,0.0405,0.0429,0.0428,0.0428,0.0428,0.0525,0.0528,0.0531,0,0,0,0,0,0,0,0,0,0,0,0,0,0.0328,0.0329,0.036,0.0361,0.0361,0.0403,0.0404,0.0405,0.0429,0.0428,0.0428,0.0428,0.0524,0.0528,0.0531,0,0,0,0,0,0,0,0,0,0,0,0,0,0.0358,0.0329,0.036,0.0374,0.0376,0.0403,0.0404,0.0405,0.0429,0.0428,0.0428,0.0427,0.0523,0.0527,0.0532,0.0569,0,0,0.0545,0.0547,0,0,0,0,0,0,0,0,0.0356,0.036,0.0372,0.0373,0.0375,0.0406,0.0428,0.0461,0.0429,0.0413,0.0428,0.0427,0.0488,0.0495,0.051,0.0574,0.0578,0.0546,0.0548,0.055,0.0551,0,0,0,0,0,0,0,0.0354,0.0358,0.0382,0.0372,0.0374,0.0388,0.0392,0.0435,0.0458,0.0415,0.0415,0.0413,0.049,0.0506,0.0513,0.0579,0.0545,0.0549,0.0552,0.0554,0.0753,0.0755,0,0,0,0,0,0,0.0339,0.0356,0.0381,0.0383,0.0359,0.0388,0.0393,0.04,0.0456,0.0462,0.0414,0.0414,0.0499,0.0507,0.0516,0.0621,0.055,0.0554,0.0557,0.075,0.0753,0.0756,0,0,0,0,0,0,0.0338,0.0341,0.0379,0.0366,0.0371,0.0389,0.0397,0.0401,0.0417,0.0454,0.0462,0.0424,0.0498,0.051,0.0571,0.0623,0.0556,0.056,0.0747,0.0751,0.0755,0.0794,0,0,0,0,0,0,0.0337,0.0341,0.0346,0.0365,0.0371,0.0397,0.0397,0.0402,0.0414,0.0415,0.0466,0.0474,0.0499,0.0565,0.0576,0.0627,0.0564,0.0743,0.0749,0.0753,0.079,0.0799,0.0807,0,0,0,0,0,0.0336,0.0341,0.0347,0.035,0.0377,0.0397,0.0403,0.0416,0.0415,0.0428,0.047,0.0472,0.0605,0.057,0.0582,0.0637,0.0741,0.0747,0.0753,0.0786,0.0797,0.0807,0,0,0,0,0,0,0.0325,0.0344,0.0351,0.036,0.0378,0.04,0.0406,0.0417,0.046,0.0462,0.0498,0.0511,0.0589,0.0607,0.0568,0.0712,0.0677,0.0686,0.0698,0.0709,0.0718,0.0742,0.0567,0,0,0,0,0,0.0326,0.0341,0.0356,0.0366,0.037,0.039,0.04,0.0411,0.0444,0.046,0.0501,0.0556,0.0625,0.0658,0.0711,0.0781,0.0799,0.0829,0.0838,0.0845,0.0876,0.0983,0.1004,0.0776,0.0776,0.0776,0,0,0.0321,0.0336,0.0342,0.0366,0.0378,0.041,0.0396,0.041,0.0457,0.0467,0.0545,0.0584,0.065,0.0737,0.0774,0.0756,0.0902,0.0852,0.0858,0.0886,0.0991,0.1014,0.1033,0.078,0.0779,0.0778,0,0,0.0325,0.0334,0.0348,0.0372,0.0392,0.0415,0.0419,0.0448,0.0478,0.0544,0.0582,0.0662,0.0734,0.0818,0.0865,0.0958,0.0944,0.0959,0.1027,0.113,0.115,0.1167,0.1135,0.115,0.0965,0.0965,0.0965,0,0.0322,0.0354,0.0355,0.0384,0.0418,0.0421,0.0462,0.0495,0.055,0.0604,0.0572,0.0754,0.0792,0.0951,0.0977,0.0983,0.0983,0.0974,0.1141,0.116,0.1178,0.1141,0.1157,0.0968,0.0968,0.0967,0.0967,0,0.0344,0.038,0.0389,0.0443,0.0475,0.0508,0.0552,0.0598,0.0627,0.0679,0.0812,0.0873,0.0991,0.1011,0.1017,0.1177,0.111,0.1134,0.1108,0.1203,0.1157,0.1173,0.0972,0.0971,0.097,0.0969,0,0,0.0328,0.0396,0.0404,0.0459,0.0518,0.0555,0.0634,0.0731,0.0818,0.0866,0.1003,0.1107,0.1135,0.1193,0.1224,0.1303,0.1386,0.1261,0.1266,0.1216,0.151,0.1391,0.1395,0.1433,0.1438,0.1442,0.1396,0,0.0357,0.0437,0.0465,0.0566,0.0618,0.067,0.0758,0.0846,0.0919,0.1048,0.1132,0.1256,0.1206,0.1269,0.1346,0.1408,0.1444,0.139,0.1439,0.1439,0.1316,0.1419,0.1402,0.1357,0.1411,0.1414,0.1416,0,0.0383,0.0444,0.0538,0.067,0.0696,0.076,0.0926,0.1003,0.1163,0.1221,0.1346,0.1402,0.1542,0.1482,0.1604,0.1564,0.1537,0.1547,0.1547,0.145,0.1355,0.1293,0.1384,0.1433,0.144,0.1438,0.1436,0,0.0401,0.0507,0.0598,0.064,0.077,0.084,0.0917,0.1064,0.1162,0.1343,0.1432,0.158,0.1674,0.171,0.1684,0.1664,0.1776,0.1761,0.1608,0.1592,0.1601,0.158,0.1752,0.1842,0.1842,0.1843,0.1843,0,0.0446,0.0522,0.0617,0.0671,0.0807,0.0876,0.1035,0.113,0.129,0.1436,0.1522,0.166,0.1745,0.18,0.1749,0.1709,0.1821,0.1642,0.1617,0.16,0.1581,0.1639,0.1643,0.1841,0.1841,0.1841,0.1842,0,0.0472,0.0522,0.064,0.0773,0.0818,0.0919,0.1083,0.1204,0.1325,0.152,0.158,0.1754,0.182,0.1813,0.1878,0.1789,0.1764,0.1703,0.1597,0.1562,0.1461,0.1464,0.1538,0.1595,0.1557,0.1554,0.1552,0,0.051,0.0566,0.0704,0.0775,0.084,0.0979,0.1083,0.1218,0.1339,0.1572,0.1676,0.1798,0.19,0.1888,0.1778,0.1652,0.1682,0.1527,0.1521,0.1482,0.147,0.1455,0.1501,0.1502,0.1499,0.1497,0.1496,0,0.0599,0.0631,0.072,0.0834,0.0945,0.1083,0.1226,0.1319,0.149,0.1632,0.1821,0.1919,0.1907,0.1844,0.1654,0.1562,0.1566,0.1477,0.1549,0.1542,0.1438,0.1471,0.1402,0.1478,0.148,0.1481,0.1482,0.1483,0.0671,0.0732,0.0811,0.0923,0.1037,0.1169,0.1278,0.1425,0.1595,0.18,0.1879,0.1994,0.1913,0.1683,0.1582,0.1393,0.1417,0.1357,0.1378,0.1376,0.1426,0.1234,0.1221,0.1222,0.1222,0.1222,0.1222,0,0.0754,0.0797,0.0899,0.1017,0.1121,0.1179,0.1364,0.1467,0.1644,0.1812,0.1942,0.1902,0.1803,0.1664,0.1407,0.1339,0.1363,0.1326,0.1388,0.1457,0.1399,0.1395,0.1289,0.1289,0.1289,0.1289,0.1289,0.1289,0.0806,0.0877,0.0899,0.1054,0.114,0.1274,0.1376,0.1531,0.1659,0.1791,0.1812,0.1852,0.1796,0.1508,0.1402,0.1379,0.1491,0.1372,0.1471,0.1494,0.1502,0.151,0.1515,0.1436,0.1436,0.1563,0.1564,0.1565]}],[{"header":{"parameterUnit":"m.s-1","parameterCategory":2,"la1":30.2991,"la2":30.254,"lo1":-89.0895,"lo2":-89.0444,"dy":0.0017,"dx":0.0017,"nx":28,"ny":28,"refTime":"2023-07-18T09:00:00:Z","depth":"2","parameterNumber":2,"parameterNumberName":"U-component_of_CURRENTS"},"data":[0,0,0,0,0,0,0,0,0,0,0,0,0,0,0,0,0,0,0,0,0,0,0,0,0,0,0,0,0,0,0,0,0,0,0,0,0,0,0,0,0,0,0,0,0,0,0,0,0,0,0,0,0,0,0,0,0,0,0.1918,0.1919,0,0.2047,0.2049,0.2052,0.2022,0.2019,0.2015,0.2012,0.223,0.2239,0.2248,0,0,0,0,0,0,0,0,0,0,0,0,0,0.1931,0.193,0.1918,0.1919,0.192,0.2046,0.2049,0.2052,0.2023,0.2018,0.2014,0.201,0.2227,0.2238,0.2249,0,0,0,0,0,0,0,0,0,0,0,0,0,0.1989,0.1929,0.1918,0.1912,0.1911,0.2046,0.2049,0.2053,0.2024,0.2018,0.2013,0.2008,0.2224,0.2237,0.225,0.244,0,0,0.2292,0.2298,0,0,0,0,0,0,0,0,0.1985,0.199,0.1912,0.1912,0.1912,0.2003,0.2133,0.2183,0.2025,0.1993,0.2012,0.2006,0.2159,0.2178,0.2229,0.245,0.2459,0.2293,0.2301,0.2307,0.2311,0,0,0,0,0,0,0,0.1981,0.1986,0.1981,0.1913,0.1913,0.1998,0.2,0.2144,0.2115,0.1996,0.1991,0.1989,0.216,0.2216,0.2234,0.2462,0.2293,0.2305,0.2313,0.2319,0.2654,0.2654,0,0,0,0,0,0,0.1933,0.1981,0.1977,0.1984,0.1924,0.2,0.2002,0.1989,0.2111,0.212,0.1993,0.1986,0.2195,0.2218,0.2241,0.2407,0.2307,0.232,0.2328,0.2653,0.2654,0.2655,0,0,0,0,0,0,0.1933,0.1931,0.1971,0.1977,0.1986,0.2002,0.199,0.1994,0.2046,0.2106,0.2118,0.2037,0.2192,0.2222,0.2327,0.2416,0.2326,0.2339,0.2652,0.2653,0.2654,0.278,0,0,0,0,0,0,0.1933,0.1931,0.1944,0.1973,0.1983,0.2059,0.1993,0.1999,0.2046,0.204,0.215,0.2163,0.219,0.2306,0.234,0.2433,0.2349,0.2651,0.2653,0.2654,0.2775,0.2785,0.2794,0,0,0,0,0,0.1933,0.1934,0.1944,0.1944,0.1987,0.2061,0.2079,0.2081,0.2053,0.2106,0.213,0.216,0.2336,0.2319,0.2359,0.2458,0.2651,0.2652,0.2654,0.2771,0.2783,0.2794,0,0,0,0,0,0,0.1949,0.1932,0.1942,0.194,0.2008,0.2051,0.2098,0.2108,0.218,0.217,0.2209,0.2228,0.2362,0.2376,0.2354,0.2541,0.2488,0.2498,0.2563,0.2576,0.2585,0.2585,0.236,0,0,0,0,0,0.1961,0.1954,0.1987,0.2002,0.2035,0.2087,0.2127,0.2136,0.2181,0.2207,0.2266,0.2318,0.2411,0.2455,0.2545,0.2678,0.2675,0.2745,0.2755,0.2763,0.278,0.2929,0.2957,0.266,0.266,0.266,0,0,0.1974,0.1964,0.1965,0.2008,0.2062,0.2108,0.2102,0.2169,0.2206,0.2231,0.2316,0.2396,0.2455,0.2579,0.2637,0.2596,0.281,0.2765,0.2773,0.2786,0.2934,0.2964,0.2991,0.2661,0.2661,0.2661,0,0,0.1999,0.1999,0.2018,0.2064,0.2131,0.2156,0.2176,0.2248,0.2287,0.2378,0.2405,0.2512,0.2628,0.27,0.2743,0.2864,0.2879,0.289,0.2943,0.3088,0.3116,0.3141,0.3033,0.3048,0.2872,0.2872,0.2872,0,0.2012,0.2036,0.2053,0.2088,0.2129,0.2167,0.223,0.228,0.2369,0.2424,0.2391,0.2602,0.2679,0.2841,0.2872,0.2901,0.2904,0.2908,0.3109,0.3135,0.3158,0.3043,0.3058,0.2878,0.2877,0.2877,0.2876,0,0.2102,0.2088,0.2113,0.2146,0.2205,0.2268,0.2319,0.2388,0.2418,0.2459,0.2631,0.2736,0.285,0.2903,0.2936,0.3153,0.3064,0.3133,0.3097,0.3197,0.3064,0.3078,0.2887,0.2885,0.2883,0.2881,0,0,0.2166,0.2168,0.2183,0.2178,0.2245,0.229,0.2366,0.2467,0.2506,0.261,0.2714,0.2897,0.2971,0.3026,0.3121,0.3244,0.3385,0.327,0.3275,0.3184,0.3547,0.3219,0.3198,0.3537,0.3544,0.3549,0.3337,0,0.2238,0.2285,0.2295,0.2325,0.2336,0.2384,0.244,0.2522,0.2586,0.2685,0.2828,0.2963,0.3009,0.3113,0.3256,0.3409,0.345,0.3424,0.3443,0.3437,0.3162,0.3218,0.304,0.282,0.3349,0.3351,0.3353,0,0.2321,0.233,0.241,0.2356,0.2387,0.2438,0.2545,0.2597,0.2721,0.2783,0.2935,0.3028,0.3248,0.3278,0.3503,0.35,0.3529,0.358,0.3576,0.3254,0.3142,0.2832,0.2824,0.3374,0.3373,0.3371,0.337,0,0.2359,0.2363,0.2434,0.2444,0.2453,0.2531,0.2563,0.266,0.2709,0.2889,0.2944,0.3162,0.3305,0.3452,0.3525,0.3572,0.3688,0.3751,0.3412,0.3378,0.3214,0.3156,0.3874,0.3875,0.3875,0.3876,0.3876,0,0.2384,0.2414,0.246,0.2494,0.2553,0.2571,0.2661,0.271,0.2817,0.2872,0.3032,0.3119,0.3398,0.3468,0.3526,0.3447,0.367,0.3403,0.3355,0.3222,0.3171,0.3682,0.3663,0.3867,0.3869,0.3871,0.3872,0,0.2397,0.2443,0.2461,0.2528,0.2558,0.2614,0.2678,0.2705,0.2822,0.2918,0.2992,0.315,0.3223,0.3297,0.3474,0.3392,0.3383,0.3278,0.2951,0.2869,0.2941,0.2931,0.2888,0.2876,0.2866,0.2857,0.285,0,0.2393,0.2417,0.2497,0.2527,0.2581,0.2652,0.2675,0.2736,0.2755,0.2897,0.293,0.3032,0.3038,0.3007,0.2953,0.2829,0.3051,0.2525,0.2608,0.2908,0.2868,0.2873,0.2876,0.237,0.2359,0.2351,0.2344,0,0.235,0.2426,0.2476,0.2528,0.2576,0.2593,0.2639,0.2647,0.2715,0.2761,0.2789,0.2808,0.274,0.2556,0.236,0.2296,0.254,0.2329,0.2864,0.2623,0.2399,0.2364,0.239,0.2267,0.2274,0.228,0.2284,0.2287,0.2337,0.2357,0.2428,0.249,0.2522,0.2534,0.253,0.2529,0.2516,0.2499,0.2566,0.2452,0.2409,0.1998,0.1853,0.172,0.1926,0.1869,0.1908,0.1953,0.1908,0.1679,0.1386,0.1389,0.1391,0.1393,0.1394,0,0.2262,0.2329,0.2356,0.2395,0.2383,0.2477,0.2483,0.239,0.2326,0.2246,0.2191,0.1856,0.1645,0.1585,0.1266,0.1143,0.1278,0.1076,0.1318,0.1391,0.1457,0.1402,0.0737,0.0735,0.0733,0.0731,0,0,0.225,0.2254,0.2276,0.2247,0.2306,0.2257,0.2281,0.2136,0.2023,0.1773,0.1625,0.1608,0.1569,0.118,0.1067,0.0874,0.1153,0.0809,0.1342,0.171,0.1775,0.1904,0.1894,0,0,0,0,0]},{"header":{"parameterUnit":"m.s-1","parameterCategory":2,"la1":30.2991,"la2":30.254,"lo1":-89.0895,"lo2":-89.0444,"dy":0.0017,"dx":0.0017,"nx":28,"ny":28,"refTime":"2023-07-18T09:00:00:Z","depth":"2","parameterNumber":3,"parameterNumberName":"V-component_of_CURRENTS"},"data":[0,0,0,0,0,0,0,0,0,0,0,0,0,0,0,0,0,0,0,0,0,0,0,0,0,0,0,0,0,0,0,0,0,0,0,0,0,0,0,0,0,0,0,0,0,0,0,0,0,0,0,0,0,0,0,0,0,0,0.0002,0.0002,0,0.0015,0.0015,0.0016,0.0039,0.0039,0.004,0.004,0.0134,0.0136,0.0138,0,0,0,0,0,0,0,0,0,0,0,0,0,0.0017,0.0016,0.0002,0.0002,0.0002,0.0015,0.0015,0.0016,0.0039,0.004,0.004,0.004,0.0133,0.0135,0.0138,0,0,0,0,0,0,0,0,0,0,0,0,0,0.0019,0.0016,0.0002,0.0015,0.0017,0.0015,0.0015,0.0016,0.0039,0.004,0.004,0.0041,0.0132,0.0135,0.0138,0.0145,0,0,0.0148,0.0149,0,0,0,0,0,0,0,0,0.0018,0.0018,0.0013,0.0014,0.0016,0.0026,0.0055,0.0063,0.0039,0.0031,0.004,0.0041,0.0104,0.011,0.011,0.0149,0.0153,0.0148,0.015,0.0151,0.0152,0,0,0,0,0,0,0,0.0018,0.0018,0.0008,0.0013,0.0015,0.0027,0.0028,0.0056,0.0066,0.0032,0.0033,0.0034,0.0106,0.0107,0.0113,0.0155,0.0148,0.0151,0.0153,0.0154,0.014,0.0137,0,0,0,0,0,0,0.0014,0.0017,0.0007,0.0008,0.0018,0.0026,0.0027,0.0022,0.0064,0.007,0.0033,0.0035,0.0101,0.0109,0.0116,0.0152,0.0151,0.0154,0.0156,0.0142,0.0139,0.0137,0,0,0,0,0,0,0.0014,0.0013,0.0007,0.0013,0.0013,0.0025,0.002,0.0022,0.0033,0.0064,0.0072,0.0043,0.0102,0.0112,0.0105,0.0155,0.0156,0.0159,0.0145,0.0141,0.0138,0.0209,0,0,0,0,0,0,0.0014,0.0013,0.0013,0.0013,0.0013,0.0007,0.0019,0.0022,0.0032,0.0034,0.0075,0.0083,0.0103,0.01,0.0108,0.016,0.0161,0.0147,0.0143,0.0139,0.0209,0.0208,0.0207,0,0,0,0,0,0.0015,0.0006,0.0013,0.0012,0.0011,0.0007,0.0008,0.0019,0.0032,0.0033,0.003,0.0083,0.0079,0.01,0.011,0.0165,0.0149,0.0144,0.0139,0.021,0.0208,0.0207,0,0,0,0,0,0,0.0012,0.0008,0.0015,0.0006,0.0009,0.0011,0.0013,0.0022,0.0023,0.0025,0.0055,0.0061,0.0086,0.0079,0.0101,0.0132,0.0124,0.012,0.0173,0.0172,0.0171,0.0203,0.0164,0,0,0,0,0,0.0011,0.0008,0.0006,0.0002,0.0001,0.001,0.0013,0.0019,0.0017,0.0019,0.0037,0.0045,0.007,0.0082,0.0094,0.0108,0.0151,0.0138,0.0137,0.0137,0.016,0.0329,0.035,0.012,0.012,0.012,0,0,0.0011,0.0009,0.0008,0.0003,0.0006,-0.0001,0.0014,0.0014,0.0018,0.003,0.0034,0.0054,0.0068,0.0087,0.0097,0.0093,0.0192,0.0131,0.0132,0.0155,0.0327,0.0351,0.0372,0.0116,0.0117,0.0118,0,0,-0.0011,0.0004,-0.0017,-0.0014,-0.0014,-0.0003,-0.0002,-0.0003,0.0009,-0.0001,0.0024,0.0055,0.0057,0.01,0.0118,0.0108,0.0189,0.0107,0.0143,0.0306,0.033,0.0352,0.0322,0.0341,0.0103,0.0103,0.0104,0,-0.0018,-0.003,-0.0021,-0.0041,-0.0025,-0.0005,-0.001,-0.0004,-0.0007,0.002,-0.0004,0.0058,0.0072,0.0154,0.014,0.0123,0.017,0.0166,0.0319,0.0342,0.0364,0.0329,0.035,0.0106,0.0106,0.0106,0.0105,0,-0.0054,-0.006,-0.0068,-0.0076,-0.0061,-0.0058,-0.0041,-0.0023,-0.0006,0.0012,0.0077,0.009,0.0142,0.0149,0.0144,0.0295,0.0255,0.0318,0.0353,0.0394,0.0349,0.0369,0.011,0.0109,0.0108,0.0108,0,0,-0.0082,-0.0094,-0.0094,-0.008,-0.0067,-0.0049,-0.0032,0.0014,0.0066,0.0065,0.0153,0.0175,0.0217,0.0236,0.0267,0.0387,0.0528,0.0417,0.0424,0.0436,0.0781,0.0657,0.0666,0.0671,0.0678,0.0683,0.0649,0,-0.0109,-0.0132,-0.0126,-0.011,-0.0103,-0.0056,-0.0027,0.0022,0.0068,0.0148,0.0209,0.029,0.0242,0.0308,0.0416,0.0564,0.0604,0.0522,0.0695,0.0696,0.0632,0.0697,0.0691,0.0659,0.0669,0.0673,0.0675,0,-0.015,-0.0139,-0.0138,-0.0082,-0.0072,-0.0057,0.0062,0.0084,0.0193,0.0239,0.033,0.0391,0.0541,0.0512,0.0728,0.07,0.0715,0.078,0.0783,0.0679,0.0618,0.0637,0.0696,0.071,0.0707,0.0704,0.0702,0,-0.0138,-0.0142,-0.0118,-0.0106,-0.0054,-0.0016,0.0025,0.0116,0.0184,0.0329,0.0428,0.0565,0.0705,0.081,0.0881,0.0861,0.1109,0.1098,0.0939,0.0922,0.0952,0.0929,0.1207,0.1207,0.1207,0.1207,0.1207,0,-0.0155,-0.0137,-0.011,-0.0085,-0.0019,0.0005,0.0101,0.0159,0.0282,0.0424,0.0489,0.066,0.0826,0.0962,0.0959,0.1013,0.116,0.0955,0.096,0.0948,0.0927,0.1022,0.1001,0.1206,0.1206,0.1206,0.1206,0,-0.0166,-0.0155,-0.0111,-0.0043,-0.0017,0.0034,0.0139,0.0226,0.0327,0.0533,0.0606,0.0817,0.1006,0.1038,0.1231,0.1131,0.1179,0.1116,0.0978,0.0968,0.082,0.0801,0.0952,0.0948,0.0945,0.0943,0.0941,0,-0.0183,-0.0165,-0.0073,-0.0016,0.0013,0.0088,0.0164,0.0249,0.0361,0.0645,0.0777,0.0992,0.1161,0.1272,0.1208,0.1118,0.1122,0.0966,0.0921,0.0831,0.0821,0.0806,0.0792,0.0919,0.0917,0.0915,0.0914,0,-0.0177,-0.0141,-0.0077,0.003,0.0115,0.0214,0.0325,0.0427,0.0595,0.0791,0.1096,0.1252,0.1313,0.1304,0.1114,0.1045,0.0991,0.0919,0.1024,0.0967,0.0796,0.0785,0.0775,0.0899,0.0901,0.0902,0.0903,0.0903,-0.0144,-0.0097,0.0003,0.0106,0.0213,0.0372,0.0485,0.0652,0.0878,0.1172,0.1274,0.1444,0.1363,0.1139,0.1016,0.0838,0.086,0.0766,0.0775,0.0785,0.0771,0.0606,0.0657,0.0657,0.0657,0.0657,0.0657,0,-0.0081,-0.0018,0.0079,0.0248,0.0393,0.0415,0.063,0.0778,0.1088,0.1257,0.1465,0.1337,0.1255,0.1108,0.0831,0.0666,0.0698,0.0599,0.0688,0.0703,0.0717,0.0703,0.0569,0.0568,0.0567,0.0567,0,0,-0.0022,0.0084,0.0134,0.0389,0.0502,0.0682,0.0815,0.1062,0.1199,0.14,0.1423,0.144,0.1265,0.1024,0.0858,0.0709,0.0734,0.0671,0.0759,0.0901,0.0916,0.0829,0.0826,0,0,0,0,0]}],[{"header":{"parameterUnit":"m.s-1","parameterCategory":2,"la1":30.2991,"la2":30.254,"lo1":-89.0895,"lo2":-89.0444,"dy":0.0017,"dx":0.0017,"nx":28,"ny":28,"refTime":"2023-07-18T09:00:00:Z","depth":"4","parameterNumber":2,"parameterNumberName":"U-component_of_CURRENTS"},"data":[0,0,0,0,0,0,0,0,0,0,0,0,0,0,0,0,0,0,0,0,0,0,0,0,0,0,0,0,0,0,0,0,0,0,0,0,0,0,0,0,0,0,0,0,0,0,0,0,0,0,0,0,0,0,0,0,0,0,0.0654,0.0654,0,0.0579,0.0578,0.0577,0.0619,0.0622,0.0624,0.0627,0.0596,0.0593,0.059,0,0,0,0,0,0,0,0,0,0,0,0,0,0.0739,0.0738,0.0654,0.0654,0.0653,0.058,0.0578,0.0576,0.0619,0.0622,0.0625,0.0628,0.0598,0.0594,0.059,0,0,0,0,0,0,0,0,0,0,0,0,0,0.0682,0.0737,0.0654,0.067,0.0671,0.058,0.0578,0.0576,0.0618,0.0622,0.0626,0.063,0.0599,0.0594,0.0589,0.0481,0,0,0.0574,0.0572,0,0,0,0,0,0,0,0,0.0685,0.0678,0.0668,0.0668,0.067,0.0618,0.0597,0.0548,0.0617,0.0632,0.0627,0.0631,0.0608,0.0603,0.0571,0.0479,0.0478,0.0574,0.0571,0.0569,0.0568,0,0,0,0,0,0,0,0.0689,0.0681,0.0619,0.0667,0.0668,0.0649,0.0645,0.0587,0.0595,0.0631,0.0635,0.0635,0.0609,0.0576,0.0571,0.0478,0.0574,0.057,0.0567,0.0565,0.0374,0.0372,0,0,0,0,0,0,0.071,0.0685,0.0621,0.0617,0.0694,0.0645,0.0641,0.0626,0.0595,0.0596,0.0632,0.0637,0.0582,0.0577,0.0571,0.0587,0.0569,0.0564,0.0562,0.0376,0.0374,0.0371,0,0,0,0,0,0,0.0712,0.0704,0.0624,0.0655,0.0645,0.0641,0.0623,0.0622,0.0628,0.0596,0.0598,0.0644,0.0585,0.0577,0.0555,0.0582,0.0562,0.0558,0.0379,0.0376,0.0373,0.0527,0,0,0,0,0,0,0.0714,0.0705,0.0696,0.0656,0.0644,0.0573,0.0619,0.0618,0.0622,0.063,0.0606,0.0605,0.0588,0.0563,0.055,0.0575,0.0554,0.0382,0.0377,0.0374,0.0524,0.0529,0.0533,0,0,0,0,0,0.0717,0.0682,0.0695,0.0688,0.0632,0.0572,0.0562,0.0569,0.062,0.0595,0.0609,0.0608,0.0528,0.0557,0.0543,0.0567,0.0384,0.0379,0.0374,0.0522,0.0528,0.0533,0,0,0,0,0,0,0.0722,0.0683,0.0696,0.0656,0.0624,0.0582,0.0554,0.0578,0.0564,0.0589,0.0586,0.0582,0.0573,0.0518,0.0551,0.0487,0.0451,0.0443,0.0568,0.0573,0.0577,0.0633,0.055,0,0,0,0,0,0.0716,0.068,0.0648,0.0619,0.0596,0.0584,0.0566,0.0577,0.0563,0.0563,0.056,0.0541,0.0524,0.0517,0.047,0.0432,0.0435,0.0426,0.0431,0.0436,0.0462,0.0534,0.0552,0.0356,0.0356,0.0356,0,0,0.0714,0.0688,0.0671,0.0618,0.0589,0.0541,0.058,0.0551,0.0546,0.0557,0.0548,0.0556,0.0513,0.0493,0.048,0.0467,0.0473,0.043,0.0436,0.046,0.0532,0.0552,0.0571,0.0352,0.0353,0.0353,0,0,0.0641,0.066,0.0578,0.0558,0.0521,0.0522,0.0525,0.05,0.052,0.0502,0.0535,0.0578,0.0494,0.0522,0.0514,0.0498,0.0497,0.0455,0.0537,0.0607,0.0628,0.0645,0.0625,0.064,0.0461,0.0461,0.0461,0,0.0634,0.0555,0.0549,0.0473,0.0477,0.052,0.0468,0.0469,0.046,0.0503,0.0507,0.0532,0.0517,0.0566,0.0581,0.0523,0.053,0.0544,0.0627,0.0645,0.0661,0.0636,0.0651,0.0468,0.0467,0.0466,0.0466,0,0.0483,0.0454,0.0412,0.035,0.0346,0.032,0.0342,0.037,0.0431,0.0467,0.0539,0.0555,0.0605,0.0589,0.0591,0.0691,0.0645,0.064,0.0648,0.0693,0.0658,0.0672,0.0477,0.0475,0.0473,0.0471,0,0,0.0394,0.0317,0.0311,0.0313,0.0306,0.0303,0.0315,0.0359,0.0433,0.0467,0.0561,0.0601,0.0705,0.0702,0.0736,0.0799,0.0918,0.0787,0.0787,0.0824,0.1025,0.0931,0.0934,0.0958,0.0962,0.0965,0.0941,0,0.0286,0.0162,0.016,0.0136,0.0106,0.0199,0.0229,0.0306,0.0385,0.0482,0.0592,0.0679,0.0715,0.0796,0.0879,0.0932,0.0966,0.0921,0.0923,0.0922,0.0886,0.0953,0.0978,0.095,0.0953,0.0956,0.0957,0,0.0134,0.0101,0.0023,0.0104,0.0103,0.0127,0.0279,0.031,0.0463,0.0534,0.0686,0.0772,0.094,0.0931,0.1089,0.1071,0.1064,0.1067,0.1066,0.0948,0.0856,0.0897,0.098,0.0979,0.0977,0.0975,0.0974,0,0.0082,0.0038,0.0007,0.0017,0.0073,0.0134,0.0218,0.0356,0.0441,0.0617,0.0711,0.0892,0.0996,0.1095,0.117,0.1153,0.1275,0.1236,0.1108,0.1096,0.1125,0.1106,0.1291,0.1291,0.1291,0.1291,0.1291,0,-0.001,-0.0019,0.0009,-0.0002,0.0073,0.0145,0.0265,0.0361,0.0531,0.0648,0.079,0.0896,0.1052,0.1149,0.1198,0.1225,0.1313,0.1145,0.1117,0.117,0.1158,0.113,0.1112,0.129,0.129,0.129,0.129,0,-0.0069,-0.009,-0.01,-0.0022,0.0031,0.0106,0.0299,0.039,0.0557,0.071,0.0789,0.0938,0.1072,0.1169,0.1266,0.1227,0.1272,0.1218,0.1238,0.1206,0.1014,0.1003,0.1087,0.1084,0.1082,0.108,0.1078,0,-0.0128,-0.0148,-0.0105,-0.0077,-0.003,0.0105,0.0198,0.0387,0.0479,0.0726,0.0781,0.0945,0.1038,0.1115,0.119,0.1248,0.1209,0.1167,0.1131,0.1045,0.1009,0.1002,0.0994,0.1074,0.1074,0.1073,0.1073,0,-0.0181,-0.0173,-0.0165,-0.0121,-0.004,0.005,0.0203,0.0284,0.0501,0.0644,0.0805,0.0903,0.0979,0.106,0.1093,0.113,0.1202,0.1142,0.1145,0.111,0.1031,0.0996,0.0991,0.1064,0.1066,0.1066,0.1067,0,-0.0192,-0.0193,-0.0188,-0.0126,-0.0072,-0.0004,0.0087,0.0241,0.0377,0.0662,0.0689,0.0871,0.0975,0.0991,0.1057,0.1085,0.104,0.0966,0.0978,0.0987,0.097,0.0856,0.084,0,0,0,0,0,-0.0177,-0.0178,-0.0169,-0.0131,-0.0096,-0.0048,0.0086,0.0182,0.0384,0.0485,0.0618,0.0724,0.0836,0.0886,0.0894,0.0943,0.1002,0.0935,0.0911,0.1019,0.1029,0.102,0,0,0,0,0,0,-0.0175,-0.0176,-0.0182,-0.0152,-0.0119,-0.0062,0.0013,0.0145,0.0217,0.0424,0.0494,0.0633,0.0744,0.0852,0.0874,0.0888,0.084,0.1034,0.103,0.1014,0.1022,0.103,0.1024,0,0,0,0,0]},{"header":{"parameterUnit":"m.s-1","parameterCategory":2,"la1":30.2991,"la2":30.254,"lo1":-89.0895,"lo2":-89.0444,"dy":0.0017,"dx":0.0017,"nx":28,"ny":28,"refTime":"2023-07-18T09:00:00:Z","depth":"4","parameterNumber":3,"parameterNumberName":"V-component_of_CURRENTS"},"data":[0,0,0,0,0,0,0,0,0,0,0,0,0,0,0,0,0,0,0,0,0,0,0,0,0,0,0,0,0,0,0,0,0,0,0,0,0,0,0,0,0,0,0,0,0,0,0,0,0,0,0,0,0,0,0,0,0,0,0.0024,0.0025,0,0.0063,0.0064,0.0064,0.0057,0.0056,0.0055,0.0054,0.0041,0.0042,0.0042,0,0,0,0,0,0,0,0,0,0,0,0,0,-0.0023,-0.0022,0.0024,0.0025,0.0025,0.0063,0.0064,0.0064,0.0057,0.0056,0.0055,0.0054,0.0041,0.0042,0.0042,0,0,0,0,0,0,0,0,0,0,0,0,0,0.0007,-0.0022,0.0024,0.0024,0.0024,0.0063,0.0064,0.0065,0.0057,0.0056,0.0054,0.0053,0.0041,0.0042,0.0042,0.0074,0,0,0.0045,0.0045,0,0,0,0,0,0,0,0,0.0005,0.0009,0.0024,0.0024,0.0025,0.0052,0.0042,0.0064,0.0058,0.0047,0.0054,0.0053,0.004,0.004,0.0054,0.0073,0.0072,0.0045,0.0045,0.0045,0.0046,0,0,0,0,0,0,0,0.0003,0.0007,0.0042,0.0024,0.0025,0.0033,0.0036,0.0047,0.0051,0.0048,0.0047,0.0048,0.0039,0.0054,0.0054,0.0072,0.0045,0.0045,0.0046,0.0046,0.0115,0.0117,0,0,0,0,0,0,-0.0006,0.0005,0.004,0.0043,0.0009,0.0035,0.0038,0.0046,0.0052,0.0051,0.0049,0.0048,0.0053,0.0053,0.0053,0.0095,0.0045,0.0046,0.0046,0.0114,0.0116,0.0117,0,0,0,0,0,0,-0.0007,-0.0003,0.0039,0.0023,0.0028,0.0037,0.0046,0.0048,0.0055,0.0053,0.0052,0.0053,0.0052,0.0052,0.0085,0.0094,0.0046,0.0047,0.0112,0.0114,0.0116,0.0176,0,0,0,0,0,0,-0.0008,-0.0003,0.0004,0.0022,0.0029,0.0078,0.0047,0.0049,0.0057,0.0055,0.0057,0.0055,0.0051,0.0084,0.0085,0.0094,0.0048,0.0111,0.0113,0.0116,0.0172,0.018,0.0186,0,0,0,0,0,-0.001,0.0015,0.0004,0.0008,0.0037,0.0079,0.0085,0.0087,0.0058,0.0083,0.0086,0.0054,0.01,0.0087,0.0088,0.0097,0.0109,0.0112,0.0116,0.0169,0.0178,0.0186,0,0,0,0,0,0,-0.0001,0.0017,0.0005,0.0033,0.0056,0.0077,0.0102,0.0087,0.0109,0.0101,0.0086,0.0087,0.0109,0.0105,0.009,0.0125,0.0094,0.0098,0.0134,0.0143,0.0149,0.0131,0.0048,0,0,0,0,0,0.0002,0.0027,0.004,0.0065,0.0079,0.0085,0.0099,0.0097,0.0114,0.0121,0.0122,0.0121,0.0127,0.0136,0.0143,0.0177,0.0135,0.0179,0.0186,0.0192,0.0179,0.0123,0.0122,0.0128,0.0128,0.0127,0,0,0.0006,0.0025,0.0033,0.0069,0.0087,0.0131,0.0092,0.0122,0.0146,0.0116,0.0157,0.0145,0.014,0.0174,0.0183,0.0171,0.0178,0.0196,0.0201,0.0185,0.0126,0.0125,0.0124,0.013,0.0129,0.0129,0,0,0.0056,0.0052,0.0097,0.0124,0.0155,0.0164,0.017,0.0192,0.0189,0.023,0.02,0.0196,0.023,0.0218,0.0216,0.0266,0.0211,0.027,0.0299,0.0245,0.0243,0.0241,0.022,0.0215,0.0281,0.0281,0.0281,0,0.0063,0.0114,0.0118,0.0177,0.0196,0.018,0.0228,0.0239,0.0265,0.025,0.0253,0.0244,0.0245,0.0241,0.0271,0.0277,0.025,0.0267,0.0251,0.0248,0.0244,0.0222,0.0216,0.0284,0.0284,0.0284,0.0283,0,0.0152,0.0188,0.0222,0.0284,0.031,0.0349,0.0357,0.0363,0.0348,0.0339,0.0324,0.0322,0.031,0.031,0.0318,0.0294,0.0285,0.0258,0.0223,0.0247,0.0224,0.0216,0.0289,0.0288,0.0287,0.0286,0,0,0.0171,0.0264,0.0276,0.0304,0.0359,0.0385,0.0417,0.0423,0.0408,0.0414,0.0383,0.0401,0.0363,0.0358,0.0339,0.0301,0.028,0.0286,0.0282,0.0254,0.0183,0.0221,0.0216,0.0247,0.0246,0.0244,0.0188,0,0.0234,0.0349,0.0378,0.0457,0.0499,0.0486,0.0518,0.0511,0.0487,0.0458,0.04,0.0397,0.0393,0.0389,0.0346,0.0297,0.0258,0.0299,0.0173,0.017,0.0189,0.0207,0.0239,0.0182,0.018,0.0179,0.0178,0,0.0311,0.0366,0.0473,0.051,0.0526,0.0583,0.0571,0.0594,0.0541,0.0516,0.0468,0.0424,0.0394,0.037,0.0284,0.0315,0.0257,0.0204,0.02,0.02,0.0191,0.0146,0.0163,0.0165,0.0166,0.0167,0.0167,0,0.0316,0.0418,0.0499,0.0524,0.0586,0.0613,0.0638,0.0616,0.062,0.0561,0.0545,0.0466,0.0431,0.0356,0.0295,0.0288,0.017,0.0143,0.0108,0.0111,0.0064,0.0067,0.004,0.004,0.004,0.004,0.0041,0,0.036,0.0413,0.0518,0.0556,0.0617,0.0653,0.0696,0.068,0.0671,0.066,0.0597,0.0551,0.0419,0.0341,0.0286,0.0201,0.0173,0.0109,0.0091,0.0099,0.0105,0.0061,0.0064,0.0038,0.0039,0.0039,0.004,0,0.0357,0.0441,0.0513,0.0597,0.0635,0.0679,0.0766,0.0772,0.078,0.0755,0.0753,0.0615,0.0529,0.0419,0.0265,0.0195,0.0115,0.0077,0.0125,0.0111,0.009,0.0097,0.003,0.003,0.0031,0.0031,0.0032,0,0.0374,0.0423,0.0536,0.0591,0.0649,0.0734,0.0784,0.0824,0.0824,0.0793,0.0757,0.0664,0.0572,0.0399,0.0276,0.017,0.0133,0.0078,0.005,0.0096,0.0084,0.0091,0.0097,0.0033,0.0033,0.0033,0.0033,0,0.0365,0.042,0.0476,0.0586,0.0674,0.0752,0.0821,0.0828,0.0845,0.0863,0.0771,0.0677,0.0537,0.0385,0.03,0.0216,0.0117,0.0083,0.0079,0.0053,0.0099,0.0088,0.0094,0.0035,0.0035,0.0035,0.0034,0,0.0353,0.0382,0.0473,0.0564,0.0655,0.0719,0.0775,0.0796,0.082,0.0791,0.0749,0.0647,0.0556,0.0407,0.0344,0.027,0.0224,0.016,0.0151,0.0148,0.0202,0.0279,0.0252,0,0,0,0,0,0.0339,0.0373,0.0443,0.0546,0.0627,0.0703,0.076,0.0805,0.0819,0.0767,0.0775,0.0676,0.0535,0.0445,0.0379,0.0332,0.0201,0.0245,0.012,0.0046,0.0044,0.0091,0,0,0,0,0,0,0.0332,0.0392,0.0422,0.0503,0.058,0.0682,0.0725,0.076,0.0727,0.0729,0.0655,0.0655,0.0518,0.0603,0.0383,0.0357,0.026,0.0198,0.0195,0.0048,0.0045,0.0044,0.0091,0,0,0,0,0]}]]